カタログに戻る

HULIANWANG DIGUI-99

運用中通信LEO
NORAD 66415·PAYLOAD·🇨🇳 China

打ち上げ Nov 10, 2025 から Wenchang Space Launch Site

Loading…

次のパス (今後24時間)

TLE

最新Source: Space-Track

元期: Sep 14, 2026, 14:03 UTC

1 66415U 25258D   26257.58546576 -.00000079  00000-0  97996-4 0  9993
2 66415  50.0067 334.9397 0000204 109.2307 250.8587 13.29329999 41611

AllMySatでHULIANWANG DIGUI-99をリアルタイム追跡

Download on the App Store